| time (UTC) | temp C | wind direction | speed KPH | gust KPH | rain 1hr cm | rain 24hr cm | rain mn cm | humidity % | barometer mb |
| 20260507134527 | 21 | 79 | 14.5 | 22.5 | 0.00 | 0.41 | 0.15 | 58 | 1013.0 |
| 20260507133026 | 21 | 73 | 17.7 | 22.5 | 0.00 | 0.41 | 0.15 | 58 | 1012.9 |
| 20260507131528 | 21 | 357 | 4.8 | 16.1 | 0.00 | 0.41 | 0.15 | 56 | 1013.0 |
| 20260507130030 | 21 | 329 | 3.2 | 12.9 | 0.00 | 0.41 | 0.15 | 58 | 1013.1 |
| 20260507124525 | 20 | 98 | 6.4 | 16.1 | 0.00 | 0.41 | 0.15 | 58 | 1013.1 |
| 20260507123033 | 21 | 89 | 9.7 | 14.5 | 0.00 | 0.41 | 0.15 | 61 | 1013.2 |
| 20260507121537 | 21 | 327 | 4.8 | 9.7 | 0.00 | 0.41 | 0.15 | 58 | 1013.4 |
| 20260507120004 | 21 | 6 | 1.6 | 8.0 | 0.00 | 0.41 | 0.15 | 55 | 1013.4 |
| 20260507114505 | 21 | 252 | 3.2 | 9.7 | 0.00 | 0.41 | 0.15 | 57 | 1013.5 |
| 20260507113004 | 21 | 330 | 3.2 | 8.0 | 0.00 | 0.41 | 0.15 | 55 | 1013.6 |
| 20260507111504 | 22 | 121 | 3.2 | 8.0 | 0.00 | 0.41 | 0.15 | 52 | 1013.6 |
| 20260507110004 | 21 | 219 | 0.0 | 6.4 | 0.00 | 0.41 | 0.15 | 55 | 1013.7 |
| 20260507104505 | 21 | 30 | 4.8 | 9.7 | 0.00 | 0.41 | 0.15 | 60 | 1013.8 |
| 20260507103008 | 21 | 313 | 1.6 | 9.7 | 0.00 | 0.41 | 0.15 | 57 | 1014.0 |
| 20260507101504 | 20 | 89 | 3.2 | 9.7 | 0.00 | 0.41 | 0.15 | 56 | 1014.1 |
| 20260507100006 | 21 | 358 | 1.6 | 4.8 | 0.00 | 0.41 | 0.15 | 56 | 1014.3 |
| 20260507094508 | 21 | 77 | 0.0 | 4.8 | 0.00 | 0.41 | 0.15 | 55 | 1014.3 |
| 20260507093006 | 20 | 195 | 1.6 | 9.7 | 0.00 | 0.41 | 0.15 | 59 | 1014.3 |
| 20260507091507 | 19 | 141 | 0.0 | 4.8 | 0.00 | 0.41 | 0.15 | 65 | 1014.2 |
| 20260507090006 | 18 | 257 | 6.4 | 9.7 | 0.00 | 0.41 | 0.15 | 62 | 1014.2 |
| 20260507084509 | 19 | 319 | 0.0 | 3.2 | 0.00 | 0.41 | 0.15 | 67 | 1013.9 |
| 20260507083022 | 18 | 330 | 4.8 | 9.7 | 0.00 | 0.41 | 0.15 | 66 | 1013.9 |
| 20260507081508 | 18 | 248 | 3.2 | 8.0 | 0.00 | 0.41 | 0.15 | 65 | 1013.7 |
| 20260507080011 | 19 | 0.0 | 3.2 | 0.00 | 0.41 | 0.15 | 61 | 1013.6 | |
| 20260507074524 | 18 | 308 | 1.6 | 3.2 | 0.00 | 0.41 | 0.15 | 68 | 1013.6 |
| 20260507073013 | 18 | 257 | 1.6 | 6.4 | 0.00 | 0.41 | 0.15 | 70 | 1013.6 |
| 20260507071513 | 17 | 274 | 1.6 | 3.2 | 0.00 | 0.41 | 0.15 | 69 | 1013.6 |
| 20260507070014 | 17 | 232 | 1.6 | 4.8 | 0.00 | 0.41 | 0.15 | 74 | 1013.5 |
| 20260507064516 | 16 | 256 | 3.2 | 8.0 | 0.00 | 0.41 | 0.15 | 77 | 1013.4 |
| 20260507063009 | 15 | 276 | 6.4 | 9.7 | 0.00 | 0.43 | 0.15 | 76 | 1013.4 |
| 20260507061514 | 15 | 250 | 4.8 | 9.7 | 0.00 | 0.43 | 0.15 | 77 | 1013.3 |
| 20260507060019 | 15 | 232 | 3.2 | 8.0 | 0.00 | 0.43 | 0.15 | 77 | 1013.0 |
| 20260507054515 | 15 | 219 | 3.2 | 8.0 | 0.00 | 0.43 | 0.15 | 78 | 1013.1 |
| 20260507053019 | 13 | 213 | 1.6 | 4.8 | 0.00 | 0.46 | 0.15 | 81 | 1013.1 |
| 20260507051518 | 13 | 148 | 0.0 | 3.2 | 0.00 | 0.56 | 0.15 | 82 | 1012.8 |
| 20260507050012 | 12 | 146 | 1.6 | 1.6 | 0.00 | 0.58 | 0.15 | 83 | 1012.6 |
| 20260507044521 | 12 | 157 | 0.0 | 1.6 | 0.00 | 0.61 | 0.15 | 83 | 1012.4 |
| 20260507043031 | 12 | 143 | 0.0 | 3.2 | 0.00 | 0.69 | 0.15 | 81 | 1012.2 |
| 20260507041503 | 12 | 146 | 1.6 | 3.2 | 0.00 | 0.94 | 0.15 | 81 | 1012.2 |
| 20260507040016 | -17 | 0.0 | 0.0 | 0.00 | 1.17 | 0.15 | 1012.0 | ||
| 20260507034515 | 13 | 3.2 | 4.8 | 0.00 | 1.22 | 0.15 | 79 | 1011.8 | |
| 20260507033024 | 13 | 208 | 1.6 | 4.8 | 0.00 | 1.22 | 0.15 | 80 | 1011.8 |
| 20260507031523 | 13 | 237 | 3.2 | 4.8 | 0.00 | 1.22 | 0.15 | 79 | 1011.8 |
| 20260507030023 | 13 | 214 | 0.0 | 3.2 | 0.00 | 1.24 | 0.15 | 80 | 1011.8 |
| 20260507024504 | 13 | 248 | 3.2 | 6.4 | 0.00 | 1.32 | 0.15 | 81 | 1011.6 |
| 20260507023023 | 13 | 276 | 1.6 | 6.4 | 0.00 | 1.57 | 0.15 | 82 | 1011.8 |
| 20260507021522 | 13 | 236 | 4.8 | 9.7 | 0.00 | 1.57 | 0.15 | 81 | 1011.8 |
| 20260507020018 | 13 | 241 | 3.2 | 9.7 | 0.00 | 1.57 | 0.15 | 81 | 1011.9 |
| 20260507014527 | 13 | 243 | 4.8 | 8.0 | 0.00 | 1.57 | 0.15 | 80 | 1011.7 |
| 20260507013033 | 14 | 239 | 1.6 | 4.8 | 0.00 | 1.57 | 0.15 | 80 | 1011.7 |
| 20260507011514 | 14 | 165 | 3.2 | 11.3 | 0.00 | 1.60 | 0.15 | 79 | 1011.5 |
| 20260507010006 | 14 | 227 | 3.2 | 16.1 | 0.00 | 1.68 | 0.15 | 79 | 1011.4 |
| 20260507004527 | 14 | 172 | 8.0 | 17.7 | 0.00 | 1.70 | 0.15 | 79 | 1011.5 |
| 20260507003019 | 14 | 166 | 6.4 | 14.5 | 0.00 | 1.70 | 0.15 | 81 | 1011.5 |
| 20260507001516 | 14 | 167 | 8.0 | 16.1 | 0.00 | 1.70 | 0.15 | 81 | 1011.4 |
| 20260507000012 | 14 | 225 | 9.7 | 14.5 | 0.00 | 1.70 | 0.15 | 82 | 1011.6 |
| 20260506234512 | 13 | 188 | 6.4 | 12.9 | 0.05 | 1.70 | 0.15 | 83 | 1011.6 |
| 20260506233007 | 13 | 149 | 4.8 | 12.9 | 0.08 | 1.70 | 0.15 | 84 | 1011.7 |
| 20260506231525 | 13 | 204 | 3.2 | 8.0 | 0.10 | 1.68 | 0.13 | 84 | 1011.9 |
| 20260506230024 | 14 | 148 | 6.4 | 12.9 | 0.13 | 1.68 | 0.13 | 83 | 1011.9 |
| 20260506224525 | 14 | 206 | 4.8 | 11.3 | 0.08 | 1.65 | 0.08 | 83 | 1012.0 |
| 20260506223016 | 15 | 30 | 4.8 | 11.3 | 0.05 | 1.60 | 0.05 | 82 | 1012.0 |
| 20260506221511 | 15 | 195 | 6.4 | 11.3 | 0.00 | 1.57 | 0.00 | 82 | 1011.9 |
| 20260506220028 | 15 | 189 | 4.8 | 12.9 | 0.00 | 1.55 | 0.00 | 80 | 1011.9 |
| 20260506214528 | 16 | 203 | 8.0 | 14.5 | 0.00 | 1.55 | 1.55 | 78 | 1012.0 |
| 20260506213026 | 16 | 186 | 8.0 | 19.3 | 0.00 | 1.55 | 1.55 | 78 | 1011.8 |
| 20260506211524 | 16 | 212 | 8.0 | 19.3 | 0.00 | 1.55 | 1.55 | 79 | 1011.7 |
| 20260506210020 | 16 | 217 | 9.7 | 19.3 | 0.00 | 1.55 | 1.55 | 79 | 1011.7 |
| 20260506204518 | 16 | 196 | 9.7 | 17.7 | 0.00 | 1.55 | 1.55 | 81 | 1011.6 |
| 20260506203043 | 16 | 197 | 4.8 | 14.5 | 0.00 | 1.55 | 1.55 | 81 | 1011.7 |
| 20260506201529 | 16 | 212 | 6.4 | 16.1 | 0.00 | 1.55 | 1.55 | 81 | 1011.5 |
| 20260506200041 | 16 | 218 | 6.4 | 12.9 | 0.00 | 1.55 | 1.55 | 82 | 1011.3 |
| 20260506194526 | 16 | 207 | 6.4 | 19.3 | 0.00 | 1.55 | 1.55 | 81 | 1011.1 |
| 20260506193021 | 16 | 229 | 8.0 | 14.5 | 0.00 | 1.55 | 1.55 | 81 | 1010.9 |
| 20260506191504 | 16 | 198 | 8.0 | 16.1 | 0.00 | 1.55 | 1.55 | 80 | 1010.8 |
| 20260506190003 | 16 | 148 | 4.8 | 16.1 | 0.00 | 1.55 | 1.55 | 79 | 1010.6 |
| 20260506184527 | 16 | 210 | 8.0 | 17.7 | 0.05 | 1.55 | 1.55 | 83 | 1010.4 |
| 20260506183012 | 16 | 139 | 4.8 | 9.7 | 0.08 | 1.55 | 1.55 | 83 | 1010.3 |
| 20260506181508 | 16 | 199 | 4.8 | 19.3 | 0.08 | 1.52 | 1.52 | 81 | 1010.0 |
| 20260506180006 | 16 | 233 | 12.9 | 24.1 | 0.08 | 1.52 | 1.52 | 79 | 1010.1 |
| 20260506174505 | 16 | 234 | 12.9 | 22.5 | 0.05 | 1.50 | 1.50 | 80 | 1010.1 |
| 20260506173005 | 17 | 280 | 6.4 | 16.1 | 0.03 | 1.47 | 1.47 | 80 | 1009.7 |
| 20260506171516 | 17 | 281 | 9.7 | 20.9 | 0.00 | 1.45 | 1.45 | 81 | 1009.5 |
| 20260506170014 | 16 | 230 | 9.7 | 20.9 | 0.00 | 1.42 | 1.42 | 81 | 1009.4 |
| 20260506164513 | 16 | 144 | 3.2 | 11.3 | 0.00 | 1.42 | 1.42 | 85 | 1009.3 |
| 20260506163005 | 16 | 80 | 3.2 | 11.3 | 0.00 | 1.42 | 1.42 | 87 | 1009.3 |
| 20260506161504 | 15 | 208 | 6.4 | 14.5 | 0.00 | 1.42 | 1.42 | 94 | 1009.4 |
| 20260506160005 | 15 | 131 | 4.8 | 12.9 | 0.00 | 1.42 | 1.42 | 94 | 1009.4 |
| 20260506154532 | 14 | 170 | 4.8 | 9.7 | 0.00 | 1.42 | 1.42 | 93 | 1009.5 |
| 20260506153016 | 14 | 200 | 4.8 | 16.1 | 0.08 | 1.42 | 1.42 | 93 | 1009.6 |
| 20260506151514 | 15 | 202 | 9.7 | 22.5 | 0.10 | 1.40 | 1.40 | 92 | 1009.8 |
| 20260506150008 | 16 | 267 | 6.4 | 11.3 | 0.10 | 1.40 | 1.40 | 93 | 1009.9 |
| 20260506144508 | 16 | 307 | 9.7 | 20.9 | 0.10 | 1.40 | 1.40 | 92 | 1009.6 |
| 20260506143026 | 17 | 295 | 41.8 | 56.3 | 0.05 | 1.35 | 1.35 | 85 | 1009.4 |
| 20260506141521 | 21 | 153 | 1.6 | 8.0 | 0.00 | 1.30 | 1.30 | 68 | 1009.0 |
| 20260506140029 | 21 | 133 | 8.0 | 11.3 | 0.00 | 1.30 | 1.30 | 65 | 1009.2 |